Frankfort, MI

2:26 AM EDT on August 25, 2016 (GMT -0400)
Frankfort

Weather History for KFKS - November, 2012

Change the Weather History Date:

Monday, November 19, 2012

  Actual Average (KTVC) Record (KTVC)
Temperature  
Mean Temperature 44 °F 36 °F  
Max Temperature 51 °F 43 °F 69 °F (1953)
Min Temperature 37 °F 29 °F 14 °F (1989)
Degree Days  
Heating Degree Days 21 29  
Month to date heating degree days 486  
Since 1 July heating degree days 1273  
Moisture  
Dew Point 33 °F    
Average Humidity 63    
Maximum Humidity 78    
Minimum Humidity 50    
Precipitation  
Precipitation 0.00 in 0.09 in 0.96 in (1948)
Month to date precipitation 1.75  
Year to date precipitation 29.61  
Sea Level Pressure  
Sea Level Pressure 30.23 in    
Wind  
Wind Speed 5 mph (SE)    
Max Wind Speed 9 mph    
Max Gust Speed -    
Visibility 10 miles    
Events Rain    
T = Trace of Precipitation, MM = Missing Value Source: NWS Daily Summary

Daily Weather History Graph

Daily Weather History Graph

Search for Another Location

Airport or City:

Trip Planner

Search our weather history database for the weather conditions in past years. The results will help you decide how hot, cold, wet, or windy it might be!

Date:

Astronomy

Nov. 19, 2012 Rise Set
Actual Time 7:47 AM EST 5:12 PM EST
Civil Twilight 7:15 AM EST 5:44 PM EST
Nautical Twilight 6:39 AM EST 6:20 PM EST
Astronomical Twilight 6:05 AM EST 6:55 PM EST
Moon 12:44 PM EST (11/19) 11:46 PM EST (11/19)
Length of Visible Light 10h 29m
Length of Day
9h 25m
Waxing Crescent, 40% of the Moon is Illuminated
Nov 19
Waxing Crescent
Nov 20
First Quarter
Nov 28
Full
Dec 6
Last Quarter
Dec 13
New

Hourly Weather History & Observations

Time (EST) Temp. Windchill Dew Point Humidity Pressure Visibility Wind Dir Wind Speed Gust Speed Precip Events Conditions
12:14 AM 44.1 °F 40.1 °F 32.9 °F 65% 30.34 in 10.0 mi SE 6.9 mph - N/A   Clear
12:34 AM 44.1 °F 40.8 °F 32.5 °F 64% 30.34 in 10.0 mi SE 5.8 mph - N/A   Clear
12:54 AM 43.9 °F 39.9 °F 32.2 °F 63% 30.33 in 10.0 mi SE 6.9 mph - N/A   Clear
1:14 AM 43.9 °F 38.8 °F 32.2 °F 63% 30.33 in 10.0 mi SE 9.2 mph - N/A   Clear
1:35 AM 43.9 °F 40.5 °F 32.0 °F 63% 30.33 in 10.0 mi SSE 5.8 mph - N/A   Clear
1:55 AM 43.7 °F 39.7 °F 32.0 °F 63% 30.33 in 10.0 mi SSE 6.9 mph - N/A   Clear
2:15 AM 43.2 °F 39.7 °F 32.0 °F 65% 30.32 in 10.0 mi SSE 5.8 mph - N/A   Clear
2:35 AM 43.0 °F 38.8 °F 32.2 °F 66% 30.32 in 10.0 mi SE 6.9 mph - N/A   Clear
2:55 AM 43.0 °F 38.8 °F 32.0 °F 65% 30.33 in 10.0 mi SE 6.9 mph - N/A   Clear
3:35 AM 41.9 °F 38.2 °F 32.0 °F 68% 30.32 in 10.0 mi SE 5.8 mph - N/A   Clear
3:55 AM 41.4 °F 38.4 °F 32.0 °F 69% 30.32 in 10.0 mi SE 4.6 mph - N/A   Clear
4:15 AM 41.0 °F 38.0 °F 32.0 °F 70% 30.31 in 10.0 mi SE 4.6 mph - N/A   Clear
4:56 AM 39.2 °F 37.0 °F 31.3 °F 73% 30.30 in 10.0 mi ESE 3.5 mph - N/A   Clear
5:16 AM 41.4 °F 36.8 °F 31.8 °F 69% 30.30 in 10.0 mi SE 6.9 mph - N/A   Clear
5:36 AM 37.8 °F 35.3 °F 31.1 °F 77% 30.30 in 10.0 mi SE 3.5 mph - N/A   Clear
5:56 AM 39.4 °F 37.2 °F 31.1 °F 72% 30.29 in 10.0 mi SE 3.5 mph - N/A   Clear
6:16 AM 37.6 °F 34.0 °F 30.4 °F 75% 30.29 in 10.0 mi SE 4.6 mph - N/A   Clear
6:36 AM 37.9 °F 35.5 °F 30.9 °F 76% 30.29 in 10.0 mi SE 3.5 mph - N/A   Clear
6:56 AM 39.0 °F - 30.7 °F 72% 30.29 in 10.0 mi Calm Calm - N/A   Clear
7:11 AM 38.5 °F 36.1 °F 30.6 °F 73% 30.29 in 10.0 mi SE 3.5 mph - N/A   Clear
7:32 AM 38.3 °F - 30.6 °F 74% 30.29 in 10.0 mi Calm Calm - N/A   Clear
7:52 AM 38.5 °F 36.1 °F 30.9 °F 74% 30.29 in 10.0 mi SE 3.5 mph - N/A   Clear
8:32 AM 39.9 °F 36.7 °F 31.1 °F 71% 30.28 in 10.0 mi SE 4.6 mph - N/A   Clear
8:52 AM 40.6 °F 38.6 °F 31.5 °F 70% 30.28 in 10.0 mi SSE 3.5 mph - N/A   Clear
9:12 AM 42.8 °F 39.3 °F 31.8 °F 65% 30.28 in 10.0 mi SSE 5.8 mph - N/A   Clear
9:32 AM 43.2 °F 40.5 °F 32.0 °F 65% 30.28 in 10.0 mi SSE 4.6 mph - N/A   Clear
9:52 AM 43.7 °F 41.1 °F 32.0 °F 63% 30.28 in 10.0 mi SSE 4.6 mph - N/A   Clear
10:13 AM 43.7 °F 41.1 °F 32.0 °F 63% 30.28 in 10.0 mi SSE 4.6 mph - N/A   Clear
10:33 AM 45.0 °F 41.8 °F 32.5 °F 62% 30.28 in 10.0 mi SSE 5.8 mph - N/A   Clear
10:53 AM 47.1 °F - 33.3 °F 59% 30.27 in 10.0 mi South 5.8 mph - N/A   Clear
11:13 AM 49.3 °F - 33.6 °F 55% 30.26 in 10.0 mi SSE 5.8 mph - N/A   Clear
11:33 AM 49.3 °F - 33.4 °F 54% 30.25 in 10.0 mi SSE 6.9 mph - N/A   Clear
11:53 AM 49.1 °F - 33.6 °F 55% 30.24 in 10.0 mi SE 6.9 mph - N/A   Mostly Cloudy
12:13 PM 49.1 °F - 33.3 °F 54% 30.24 in 10.0 mi South 4.6 mph - N/A   Overcast
12:33 PM 49.1 °F - 33.4 °F 55% 30.23 in 10.0 mi SSE 4.6 mph - N/A   Overcast
12:53 PM 49.1 °F - 33.1 °F 54% 30.21 in 10.0 mi SSE 5.8 mph - N/A   Overcast
1:14 PM 48.7 °F - 33.1 °F 55% 30.21 in 10.0 mi SSE 3.5 mph - N/A   Mostly Cloudy
1:34 PM 49.3 °F - 33.3 °F 54% 30.21 in 10.0 mi SE 3.5 mph - N/A   Scattered Clouds
1:54 PM 49.5 °F - 33.3 °F 54% 30.20 in 10.0 mi SE 4.6 mph - N/A   Mostly Cloudy
2:14 PM 50.4 °F - 33.6 °F 53% 30.20 in 10.0 mi SSE 4.6 mph - N/A   Mostly Cloudy
2:34 PM 51.8 °F - 33.4 °F 50% 30.19 in 10.0 mi SSW 4.6 mph - N/A   Clear
2:54 PM 51.1 °F - 33.4 °F 51% 30.19 in 10.0 mi SSE 4.6 mph - N/A   Clear
3:14 PM 51.3 °F - 33.8 °F 51% 30.19 in 10.0 mi South 3.5 mph - N/A   Clear
3:34 PM 51.1 °F - 34.2 °F 52% 30.18 in 10.0 mi SE 3.5 mph - N/A   Scattered Clouds
3:54 PM 51.3 °F - 34.0 °F 52% 30.17 in 10.0 mi ESE 3.5 mph - N/A   Mostly Cloudy
4:15 PM 50.9 °F - 34.0 °F 52% 30.18 in 10.0 mi SSE 4.6 mph - N/A   Mostly Cloudy
4:35 PM 50.7 °F - 33.4 °F 52% 30.17 in 10.0 mi SE 6.9 mph - N/A   Overcast
4:55 PM 50.4 °F - 33.4 °F 52% 30.16 in 10.0 mi ESE 4.6 mph - N/A   Mostly Cloudy
5:15 PM 50.0 °F - 33.4 °F 53% 30.16 in 10.0 mi SE 3.5 mph - N/A   Scattered Clouds
5:55 PM 49.1 °F - 33.4 °F 55% 30.16 in 10.0 mi ESE 3.5 mph - N/A   Mostly Cloudy
6:15 PM 48.4 °F - 33.3 °F 56% 30.15 in 10.0 mi Calm Calm - N/A   Scattered Clouds
6:35 PM 48.7 °F - 32.9 °F 54% 30.16 in 10.0 mi Calm Calm - N/A   Mostly Cloudy
6:55 PM 48.6 °F - 33.1 °F 55% 30.15 in 10.0 mi Calm Calm - N/A   Overcast
7:15 PM 48.9 °F - 33.1 °F 54% 30.16 in 10.0 mi Calm Calm - N/A   Overcast
7:36 PM 48.2 °F - 33.6 °F 57% 30.16 in 10.0 mi SE 3.5 mph - N/A   Overcast
7:56 PM 48.9 °F - 33.4 °F 55% 30.16 in 10.0 mi SSE 4.6 mph - N/A   Overcast
8:16 PM 50.0 °F - 33.4 °F 53% 30.16 in 10.0 mi SSW 3.5 mph - N/A   Overcast
8:36 PM 49.1 °F - 35.1 °F 58% 30.15 in 10.0 mi Calm Calm - N/A Rain Light Rain
8:56 PM 46.8 °F - 37.6 °F 70% 30.15 in 10.0 mi Calm Calm - N/A Rain Light Rain
9:16 PM 46.0 °F 44.8 °F 38.7 °F 75% 30.14 in 10.0 mi ESE 3.5 mph - N/A Rain Light Rain
9:36 PM 46.0 °F 43.9 °F 38.3 °F 74% 30.13 in 10.0 mi ESE 4.6 mph - N/A Rain Rain
9:56 PM 45.3 °F - 38.8 °F 78% 30.13 in 10.0 mi Calm Calm - N/A Rain Light Rain
10:11 PM 45.9 °F 44.6 °F 38.5 °F 75% 30.13 in 10.0 mi East 3.5 mph - N/A Rain Light Rain
10:32 PM 45.7 °F 44.4 °F 38.7 °F 76% 30.12 in 10.0 mi SE 3.5 mph - N/A   Overcast
10:52 PM 46.6 °F - 37.4 °F 70% 30.12 in 10.0 mi Calm Calm - N/A   Overcast
11:12 PM 46.8 °F - 37.0 °F 69% 30.11 in 10.0 mi Calm Calm - N/A   Overcast
11:32 PM 46.4 °F - 37.4 °F 71% 30.10 in 10.0 mi Calm Calm - N/A   Overcast
11:52 PM 47.3 °F - 36.5 °F 66% 30.10 in 10.0 mi ESE 3.5 mph - N/A   Overcast